カタログに戻る

GONETS M 04

運用中通信PO
NORAD 38736·PAYLOAD·🇷🇺 Russia

打ち上げ Jul 28, 2012 から Plesetsk Cosmodrome

Loading…

次のパス (今後24時間)

TLE

最新Source: Space-Track

元期: Sep 14, 2026, 13:07 UTC

1 38736U 12041D   26257.54690486 -.00000022  00000-0 -22439-3 0  9998
2 38736  82.4844  14.9627 0024890 215.9507 143.9900 12.43906653634064

AllMySatでGONETS M 04をリアルタイム追跡

Download on the App Store